Tracking 30995 objects as of 5-Jul-2025
HD Live streaming from Space Station
objects crossing your sky now

ARIANE 44L DEB

Track ARIANE 44L DEB now!


NORAD ID: 24741
Int'l Code: 1991-003H
Perigee: 685.9 km
Apogee: 30,651.9 km
Inclination: 7.1 °
Period: 542.7 minutes
Semi major axis: 22039 km
RCS: 0.2921 m2 (medium)
Launch date: January 15, 1991
Source: France (FR)
Launch site: FRENCH GUIANA (FRGUI)

Note: This is SATELLITE DEBRIS
Your satellite tracking list
FENGYUN 1C DEB
Track 1 satellite(s)




NASA's NSSDC Master Catalog

Two Line Element Set (TLE):
1 24741U 91003H   25182.74519413  .00000011  00000-0  25570-2 0  9996
2 24741   7.0682 338.7603 6798110 260.9501  29.0842  2.65330716281748
Source of the keplerian elements: AFSPC